Location: Moscow
(30.9132°N, 94.8252°W)
Time: 13:12:24
(UTC+00:00)

BREEZE M DEB (TANK) - Pass Details

Date: 15 November 2025
Orbit: 282 x 13797 km, 49.5° (Epoch: 11 December)

Event Time Altitude Azimuth Distance (km) Brightness Sun altitude
Rises 23:54:01 0° 205° (SSW) 4,764 8.3 -7.4°
Reaches altitude 10° 23:59:07 10° 190° (S) 2,456 6.5 -8.4°
Maximum altitude 00:02:25 18° 146° (SE) 1,288 4.5 -9.1°
Enters shadow 00:04:14 11° 101° (ESE) 1,329 4.2 -9.5°
